QPF
0.03 0.03 0.03 0.02 0.03 0.06 0.07 0.06 0.07 0.08 0.08 0.07 0.08 0.07 0.06 0.06 0.07 0.07 0.05 0.06 0.05 0.05 0.06 0.07 0.06 0.06 0.07 0.06 0.04 0.03 0.03 0.04 0.04 0.03 0.04 0.05 0.05 0.03 0.02 0.02 0.01 0.01 0.01
0.03 0.03 0.02 0.02 0.03 0.05 0.08 0.07 0.06 0.06 0.06 0.06 0.06 0.06 0.04 0.05 0.06 0.06 0.05 0.06 0.07 0.06 0.06 0.07 0.06 0.06 0.06 0.05 0.05 0.05 0.04 0.04 0.04 0.03 0.04 0.05 0.06 0.04 0.03 0.02 0.01 0.01 0.01
0.05 0.04 0.03 0.03 0.03 0.03 0.04 0.04 0.05 0.05 0.05 0.06 0.08 0.06 0.05 0.05 0.06 0.06 0.05 0.05 0.06 0.07 0.08 0.07 0.05 0.05 0.05 0.04 0.04 0.04 0.04 0.03 0.05 0.04 0.03 0.05 0.05 0.05 0.03 0.02 0.02 0.02 0.01
0.04 0.03 0.03 0.03 0.02 0.02 0.03 0.03 0.04 0.04 0.04 0.04 0.05 0.06 0.05 0.06 0.06 0.05 0.04 0.04 0.04 0.06 0.07 0.07 0.06 0.05 0.04 0.04 0.04 0.04 0.05 0.05 0.06 0.05 0.04 0.05 0.06 0.05 0.05 0.04 0.03 0.03 0.02
0.03 0.03 0.02 0.02 0.02 0.03 0.03 0.03 0.02 0.03 0.03 0.03 0.04 0.05 0.05 0.06 0.05 0.04 0.04 0.04 0.05 0.05 0.05 0.06 0.06 0.06 0.03 0.03 0.03 0.04 0.06 0.05 0.05 0.06 0.06 0.05 0.06 0.06 0.06 0.05 0.04 0.04 0.03
0.02 0.02 0.02 0.02 0.02 0.03 0.04 0.04 0.03 0.03 0.03 0.04 0.05 0.05 0.04 0.03 0.04 0.03 0.04 0.06 0.06 0.05 0.05 0.05 0.06 0.05 0.04 0.02 0.02 0.04 0.05 0.05 0.05 0.05 0.05 0.05 0.04 0.05 0.05 0.05 0.05 0.06 0.05
0.02 0.02 0.02 0.02 0.02 0.03 0.03 0.03 0.04 0.03 0.04 0.05 0.05 0.04 0.04 0.04 0.04 0.02 0.02 0.05 0.06 0.06 0.06 0.06 0.05 0.04 0.04 0.03 0.03 0.03 0.03 0.03 0.02 0.04 0.04 0.04 0.03 0.04 0.05 0.04 0.05 0.05 0.04
0.02 0.02 0.02 0.02 0.02 0.03 0.03 0.03 0.04 0.04 0.04 0.04 0.05 0.04 0.04 0.03 0.03 0.02 0.02 0.03 0.05 0.04 0.04 0.05 0.05 0.05 0.05 0.05 0.05 0.04 0.04 0.04 0.03 0.03 0.02 0.02 0.03 0.04 0.05 0.06 0.06 0.05 0.05
0.03 0.02 0.02 0.03 0.03 0.03 0.03 0.03 0.04 0.05 0.05 0.04 0.04 0.05 0.05 0.04 0.03 0.03 0.03 0.03 0.04 0.03 0.03 0.04 0.04 0.04 0.06 0.08 0.08 0.08 0.08 0.07 0.04 0.04 0.02 0.02 0.02 0.02 0.04 0.05 0.05 0.06 0.06
0.03 0.02 0.03 0.04 0.04 0.04 0.04 0.04 0.03 0.04 0.05 0.06 0.06 0.05 0.06 0.05 0.05 0.03 0.03 0.03 0.03 0.03 0.05 0.06 0.04 0.04 0.06 0.08 0.11 0.12 0.10 0.09 0.06 0.05 0.04 0.05 0.04 0.03 0.03 0.05 0.05 0.06 0.06
0.03 0.02 0.03 0.04 0.05 0.05 0.05 0.05 0.03 0.03 0.03 0.04 0.05 0.05 0.06 0.04 0.05 0.04 0.03 0.03 0.03 0.05 0.06 0.07 0.06 0.04 0.03 0.04 0.08 0.12 0.11 0.09 0.08 0.07 0.07 0.05 0.05 0.04 0.04 0.05 0.06 0.05 0.05
0.02 0.02 0.02 0.04 0.05 0.04 0.06 0.05 0.04 0.03 0.03 0.04 0.04 0.05 0.05 0.05 0.04 0.04 0.04 0.04 0.04 0.05 0.06 0.07 0.06 0.05 0.04 0.04 0.04 0.06 0.08 0.09 0.10 0.11 0.08 0.06 0.05 0.04 0.04 0.05 0.06 0.06 0.06
0.03 0.03 0.03 0.03 0.03 0.04 0.05 0.05 0.04 0.04 0.03 0.04 0.04 0.03 0.04 0.04 0.02 0.02 0.03 0.03 0.04 0.03 0.04 0.05 0.05 0.06 0.04 0.04 0.04 0.05 0.07 0.07 0.10 0.12 0.09 0.07 0.06 0.05 0.05 0.05 0.06 0.07 0.07
0.04 0.03 0.03 0.04 0.04 0.05 0.04 0.05 0.05 0.04 0.03 0.03 0.03 0.03 0.03 0.03 0.03 0.02 0.02 0.02 0.03 0.03 0.03 0.04 0.04 0.05 0.04 0.03 0.04 0.05 0.06 0.08 0.08 0.10 0.11 0.09 0.07 0.06 0.06 0.05 0.06 0.06 0.05
0.04 0.03 0.04 0.05 0.06 0.06 0.06 0.06 0.07 0.05 0.04 0.03 0.03 0.03 0.04 0.05 0.04 0.04 0.05 0.05 0.04 0.03 0.04 0.03 0.03 0.03 0.03 0.03 0.04 0.05 0.06 0.07 0.08 0.08 0.08 0.09 0.08 0.07 0.06 0.05 0.04 0.05 0.04
0.03 0.03 0.03 0.04 0.06 0.07 0.07 0.07 0.07 0.07 0.06 0.04 0.03 0.03 0.04 0.04 0.05 0.06 0.06 0.07 0.07 0.06 0.07 0.06 0.04 0.03 0.03 0.04 0.05 0.06 0.07 0.07 0.07 0.08 0.09 0.08 0.07 0.06 0.04 0.03 0.03 0.05 0.05
0.03 0.02 0.03 0.05 0.06 0.06 0.07 0.07 0.06 0.04 0.05 0.04 0.03 0.02 0.03 0.03 0.04 0.04 0.05 0.06 0.07 0.09 0.10 0.11 0.08 0.06 0.06 0.06 0.07 0.08 0.09 0.09 0.08 0.08 0.08 0.07 0.06 0.05 0.04 0.03 0.03 0.05 0.08
0.04 0.03 0.04 0.06 0.07 0.07 0.06 0.07 0.06 0.04 0.03 0.04 0.04 0.04 0.04 0.04 0.04 0.04 0.04 0.04 0.06 0.08 0.10 0.12 0.12 0.10 0.09 0.09 0.10 0.10 0.10 0.11 0.11 0.10 0.10 0.08 0.07 0.06 0.05 0.04 0.04 0.05 0.06
0.03 0.05 0.05 0.08 0.08 0.07 0.05 0.05 0.04 0.03 0.03 0.03 0.02 0.03 0.04 0.03 0.03 0.03 0.03 0.02 0.03 0.05 0.07 0.09 0.09 0.09 0.09 0.08 0.08 0.09 0.09 0.09 0.10 0.10 0.11 0.11 0.09 0.07 0.06 0.04 0.04 0.05 0.06
0.03 0.07 0.08 0.09 0.08 0.07 0.04 0.03 0.03 0.03 0.03 0.02 0.02 0.02 0.02 0.02 0.02 0.03 0.02 0.02 0.03 0.04 0.03 0.04 0.05 0.05 0.06 0.05 0.04 0.05 0.06 0.07 0.08 0.09 0.09 0.09 0.09 0.08 0.07 0.06 0.06 0.06 0.06
0.05 0.10 0.08 0.07 0.06 0.06 0.03 0.02 0.02 0.02 0.03 0.03 0.03 0.03 0.03 0.02 0.03 0.04 0.04 0.05 0.03 0.03 0.03 0.04 0.05 0.05 0.06 0.06 0.06 0.06 0.05 0.05 0.06 0.08 0.09 0.08 0.07 0.07 0.07 0.08 0.08 0.07 0.06
0.08 0.09 0.05 0.04 0.04 0.04 0.02 0.02 0.02 0.02 0.04 0.04 0.05 0.05 0.04 0.03 0.04 0.05 0.05 0.06 0.06 0.05 0.05 0.05 0.05 0.06 0.07 0.08 0.09 0.08 0.06 0.06 0.06 0.07 0.08 0.08 0.08 0.08 0.08 0.08 0.08 0.07 0.07
0.08 0.06 0.04 0.03 0.03 0.03 0.02 0.01 0.02 0.03 0.04 0.05 0.05 0.05 0.04 0.04 0.06 0.06 0.06 0.05 0.04 0.03 0.03 0.03 0.04 0.05 0.06 0.06 0.08 0.09 0.09 0.08 0.08 0.08 0.08 0.09 0.09 0.09 0.09 0.08 0.07 0.07 0.07
0.07 0.05 0.04 0.04 0.03 0.02 0.02 0.02 0.03 0.03 0.03 0.03 0.04 0.04 0.05 0.05 0.05 0.06 0.06 0.05 0.04 0.03 0.03 0.03 0.03 0.04 0.05 0.05 0.06 0.07 0.08 0.08 0.08 0.07 0.07 0.07 0.08 0.08 0.08 0.08 0.07 0.07 0.07
0.08 0.07 0.05 0.03 0.02 0.02 0.02 0.02 0.03 0.05 0.05 0.04 0.03 0.04 0.06 0.06 0.06 0.05 0.04 0.03 0.02 0.02 0.02 0.02 0.02 0.03 0.03 0.04 0.05 0.06 0.06 0.05 0.05 0.05 0.05 0.04 0.05 0.06 0.07 0.06 0.06 0.06 0.06
0.06 0.06 0.05 0.03 0.02 0.02 0.02 0.03 0.04 0.04 0.04 0.04 0.04 0.05 0.05 0.05 0.05 0.04 0.03 0.02 0.01 0.01 0.01 0.01 0.01 0.01 0.01 0.01 0.02 0.04 0.05 0.05 0.04 0.03 0.03 0.03 0.04 0.04 0.05 0.04 0.04 0.04 0.04
MSLP
1005.38 1006.24 1006.97 1007.57 1008.04 1008.43 1008.78 1009.12 1009.51 1009.97 1010.50 1011.10 1011.73 1012.35 1012.93 1013.43 1013.83 1014.15 1014.38 1014.56 1014.72 1014.89 1015.08 1015.29 1015.51 1015.73 1015.92 1016.07 1016.16 1016.18 1016.13 1016.03 1015.89 1015.70 1015.48 1015.22 1014.93 1014.60 1014.23 1013.86 1013.49 1013.16 1012.92
1004.68 1005.63 1006.46 1007.14 1007.70 1008.14 1008.52 1008.89 1009.28 1009.73 1010.26 1010.85 1011.48 1012.11 1012.70 1013.22 1013.66 1013.99 1014.25 1014.44 1014.60 1014.76 1014.94 1015.13 1015.35 1015.56 1015.76 1015.93 1016.05 1016.11 1016.11 1016.06 1015.97 1015.82 1015.63 1015.39 1015.09 1014.74 1014.35 1013.92 1013.48 1013.08 1012.74
1004.01 1005.02 1005.92 1006.69 1007.32 1007.83 1008.26 1008.66 1009.06 1009.52 1010.03 1010.60 1011.22 1011.84 1012.43 1012.96 1013.40 1013.75 1014.02 1014.22 1014.38 1014.54 1014.71 1014.90 1015.11 1015.33 1015.54 1015.74 1015.89 1016.01 1016.07 1016.08 1016.04 1015.95 1015.80 1015.60 1015.32 1014.98 1014.58 1014.13 1013.65 1013.19 1012.78
1003.45 1004.46 1005.40 1006.23 1006.92 1007.49 1007.97 1008.40 1008.83 1009.28 1009.78 1010.33 1010.92 1011.53 1012.10 1012.62 1013.06 1013.41 1013.69 1013.90 1014.07 1014.23 1014.40 1014.60 1014.81 1015.05 1015.29 1015.52 1015.72 1015.88 1016.00 1016.07 1016.09 1016.06 1015.97 1015.81 1015.58 1015.27 1014.88 1014.43 1013.94 1013.44 1012.97
1003.11 1004.07 1004.99 1005.83 1006.55 1007.16 1007.67 1008.13 1008.56 1009.01 1009.49 1010.02 1010.58 1011.15 1011.71 1012.21 1012.65 1013.01 1013.29 1013.51 1013.70 1013.88 1014.07 1014.28 1014.52 1014.78 1015.05 1015.31 1015.55 1015.76 1015.93 1016.05 1016.12 1016.14 1016.09 1015.98 1015.80 1015.53 1015.18 1014.75 1014.27 1013.75 1013.24
1003.09 1003.93 1004.78 1005.57 1006.27 1006.88 1007.40 1007.86 1008.30 1008.73 1009.20 1009.70 1010.23 1010.78 1011.30 1011.80 1012.23 1012.59 1012.90 1013.15 1013.36 1013.57 1013.80 1014.04 1014.31 1014.60 1014.90 1015.19 1015.46 1015.70 1015.90 1016.05 1016.14 1016.19 1016.17 1016.09 1015.93 1015.70 1015.39 1015.00 1014.54 1014.04 1013.51
1003.42 1004.11 1004.83 1005.54 1006.18 1006.76 1007.25 1007.70 1008.12 1008.54 1008.98 1009.45 1009.95 1010.47 1010.98 1011.46 1011.89 1012.27 1012.60 1012.89 1013.14 1013.40 1013.66 1013.94 1014.24 1014.56 1014.89 1015.20 1015.49 1015.73 1015.93 1016.08 1016.17 1016.20 1016.19 1016.11 1015.97 1015.77 1015.49 1015.13 1014.71 1014.24 1013.72
1004.12 1004.64 1005.21 1005.80 1006.36 1006.87 1007.33 1007.74 1008.13 1008.53 1008.94 1009.38 1009.86 1010.35 1010.84 1011.31 1011.75 1012.15 1012.51 1012.83 1013.13 1013.42 1013.73 1014.04 1014.37 1014.71 1015.05 1015.36 1015.64 1015.87 1016.04 1016.15 1016.21 1016.21 1016.16 1016.06 1015.91 1015.71 1015.45 1015.13 1014.75 1014.31 1013.82
1005.12 1005.48 1005.92 1006.39 1006.85 1007.29 1007.69 1008.07 1008.43 1008.80 1009.19 1009.60 1010.04 1010.51 1010.98 1011.44 1011.88 1012.29 1012.67 1013.02 1013.35 1013.68 1014.00 1014.34 1014.69 1015.03 1015.35 1015.64 1015.89 1016.07 1016.19 1016.25 1016.24 1016.18 1016.08 1015.94 1015.76 1015.55 1015.30 1015.00 1014.66 1014.26 1013.83
1006.34 1006.57 1006.88 1007.25 1007.63 1008.01 1008.37 1008.72 1009.05 1009.40 1009.76 1010.14 1010.56 1010.99 1011.44 1011.88 1012.31 1012.71 1013.09 1013.45 1013.78 1014.12 1014.44 1014.77 1015.10 1015.42 1015.71 1015.95 1016.15 1016.27 1016.33 1016.32 1016.25 1016.12 1015.96 1015.76 1015.55 1015.32 1015.07 1014.79 1014.48 1014.14 1013.75
1007.65 1007.79 1008.02 1008.32 1008.64 1008.98 1009.31 1009.64 1009.96 1010.29 1010.63 1010.99 1011.37 1011.77 1012.18 1012.59 1012.98 1013.36 1013.71 1014.04 1014.35 1014.65 1014.94 1015.23 1015.51 1015.77 1016.00 1016.18 1016.31 1016.38 1016.37 1016.30 1016.16 1015.98 1015.77 1015.54 1015.29 1015.05 1014.80 1014.53 1014.26 1013.96 1013.63
1008.95 1009.04 1009.22 1009.47 1009.77 1010.09 1010.41 1010.73 1011.05 1011.37 1011.69 1012.03 1012.38 1012.74 1013.10 1013.46 1013.80 1014.12 1014.41 1014.68 1014.93 1015.16 1015.38 1015.59 1015.78 1015.96 1016.11 1016.23 1016.29 1016.30 1016.24 1016.12 1015.95 1015.74 1015.50 1015.25 1015.00 1014.75 1014.50 1014.26 1014.01 1013.76 1013.48
1010.15 1010.21 1010.37 1010.61 1010.89 1011.21 1011.53 1011.85 1012.17 1012.48 1012.79 1013.11 1013.42 1013.73 1014.04 1014.33 1014.61 1014.85 1015.06 1015.24 1015.40 1015.53 1015.64 1015.75 1015.84 1015.92 1015.99 1016.02 1016.03 1015.99 1015.90 1015.77 1015.59 1015.38 1015.15 1014.91 1014.66 1014.42 1014.20 1013.98 1013.76 1013.54 1013.31
1011.21 1011.25 1011.40 1011.62 1011.90 1012.21 1012.53 1012.85 1013.17 1013.47 1013.77 1014.06 1014.33 1014.60 1014.85 1015.08 1015.27 1015.43 1015.55 1015.63 1015.67 1015.69 1015.69 1015.67 1015.66 1015.64 1015.61 1015.58 1015.54 1015.47 1015.38 1015.26 1015.10 1014.92 1014.73 1014.52 1014.30 1014.09 1013.89 1013.69 1013.50 1013.30 1013.10
1012.11 1012.13 1012.25 1012.45 1012.71 1013.00 1013.31 1013.62 1013.92 1014.21 1014.48 1014.74 1014.99 1015.21 1015.41 1015.58 1015.71 1015.79 1015.82 1015.80 1015.74 1015.65 1015.53 1015.41 1015.28 1015.17 1015.07 1014.99 1014.91 1014.84 1014.76 1014.67 1014.56 1014.43 1014.29 1014.12 1013.95 1013.77 1013.59 1013.41 1013.23 1013.04 1012.86
1012.87 1012.86 1012.94 1013.10 1013.31 1013.56 1013.83 1014.10 1014.37 1014.63 1014.87 1015.10 1015.32 1015.51 1015.67 1015.80 1015.88 1015.90 1015.87 1015.78 1015.64 1015.46 1015.26 1015.05 1014.85 1014.66 1014.51 1014.39 1014.30 1014.23 1014.18 1014.13 1014.08 1014.00 1013.91 1013.80 1013.66 1013.50 1013.33 1013.15 1012.96 1012.78 1012.59
1013.54 1013.48 1013.50 1013.59 1013.74 1013.92 1014.12 1014.34 1014.56 1014.77 1014.98 1015.18 1015.37 1015.54 1015.69 1015.80 1015.86 1015.86 1015.80 1015.67 1015.49 1015.26 1015.01 1014.75 1014.50 1014.27 1014.09 1013.96 1013.87 1013.82 1013.79 1013.78 1013.77 1013.75 1013.69 1013.60 1013.48 1013.33 1013.15 1012.95 1012.74 1012.53 1012.32
1014.13 1014.02 1013.97 1013.99 1014.05 1014.15 1014.27 1014.42 1014.57 1014.73 1014.90 1015.08 1015.26 1015.42 1015.57 1015.68 1015.74 1015.75 1015.69 1015.57 1015.38 1015.15 1014.89 1014.61 1014.35 1014.12 1013.94 1013.81 1013.73 1013.70 1013.70 1013.72 1013.74 1013.73 1013.70 1013.61 1013.48 1013.31 1013.10 1012.86 1012.60 1012.34 1012.09
1014.68 1014.52 1014.41 1014.35 1014.33 1014.34 1014.38 1014.45 1014.53 1014.65 1014.78 1014.94 1015.10 1015.27 1015.43 1015.56 1015.66 1015.69 1015.66 1015.57 1015.41 1015.21 1014.97 1014.72 1014.48 1014.27 1014.11 1014.00 1013.94 1013.93 1013.95 1013.99 1014.01 1014.01 1013.96 1013.85 1013.69 1013.47 1013.20 1012.90 1012.58 1012.26 1011.95
1015.18 1014.99 1014.84 1014.72 1014.63 1014.56 1014.53 1014.53 1014.56 1014.63 1014.74 1014.88 1015.04 1015.22 1015.39 1015.55 1015.67 1015.75 1015.76 1015.71 1015.60 1015.44 1015.25 1015.05 1014.86 1014.69 1014.57 1014.49 1014.46 1014.47 1014.50 1014.54 1014.55 1014.53 1014.45 1014.30 1014.08 1013.80 1013.47 1013.09 1012.70 1012.31 1011.93
1015.62 1015.44 1015.27 1015.11 1014.97 1014.86 1014.78 1014.73 1014.73 1014.77 1014.86 1014.98 1015.14 1015.33 1015.51 1015.68 1015.83 1015.93 1015.98 1015.97 1015.91 1015.80 1015.67 1015.53 1015.39 1015.28 1015.20 1015.17 1015.17 1015.19 1015.23 1015.26 1015.26 1015.20 1015.08 1014.88 1014.61 1014.26 1013.86 1013.41 1012.95 1012.48 1012.03
1016.00 1015.84 1015.68 1015.52 1015.36 1015.23 1015.13 1015.07 1015.05 1015.08 1015.15 1015.27 1015.42 1015.60 1015.78 1015.95 1016.09 1016.20 1016.27 1016.28 1016.25 1016.19 1016.11 1016.02 1015.94 1015.88 1015.86 1015.86 1015.90 1015.94 1015.98 1016.01 1015.98 1015.90 1015.74 1015.50 1015.17 1014.77 1014.31 1013.81 1013.28 1012.74 1012.23
1016.31 1016.19 1016.05 1015.91 1015.77 1015.65 1015.56 1015.51 1015.49 1015.52 1015.59 1015.70 1015.84 1015.99 1016.14 1016.29 1016.40 1016.49 1016.54 1016.56 1016.54 1016.50 1016.45 1016.40 1016.37 1016.36 1016.38 1016.42 1016.48 1016.54 1016.60 1016.61 1016.57 1016.47 1016.29 1016.01 1015.66 1015.22 1014.72 1014.18 1013.61 1013.03 1012.46
1016.57 1016.48 1016.38 1016.27 1016.16 1016.07 1016.01 1015.98 1015.98 1016.02 1016.09 1016.19 1016.30 1016.41 1016.52 1016.61 1016.68 1016.72 1016.73 1016.72 1016.68 1016.64 1016.61 1016.58 1016.58 1016.61 1016.66 1016.73 1016.81 1016.89 1016.94 1016.96 1016.91 1016.79 1016.59 1016.31 1015.94 1015.49 1014.99 1014.43 1013.85 1013.25 1012.64
1016.77 1016.71 1016.63 1016.56 1016.49 1016.44 1016.41 1016.42 1016.45 1016.50 1016.57 1016.65 1016.73 1016.80 1016.85 1016.87 1016.87 1016.85 1016.80 1016.74 1016.67 1016.62 1016.57 1016.56 1016.57 1016.61 1016.68 1016.76 1016.85 1016.93 1016.97 1016.98 1016.92 1016.79 1016.59 1016.30 1015.94 1015.51 1015.02 1014.48 1013.90 1013.31 1012.70
1016.94 1016.88 1016.83 1016.77 1016.74 1016.72 1016.74 1016.77 1016.83 1016.89 1016.96 1017.03 1017.07 1017.09 1017.08 1017.03 1016.96 1016.86 1016.76 1016.64 1016.54 1016.45 1016.39 1016.36 1016.37 1016.41 1016.47 1016.54 1016.62 1016.67 1016.70 1016.68 1016.60 1016.45 1016.24 1015.96 1015.61 1015.20 1014.74 1014.24 1013.71 1013.14 1012.55
Thickness
5735 5733 5731 5729 5728 5727 5726 5725 5725 5724 5724 5723 5722 5720 5719 5719 5718 5716 5715 5714 5712 5711 5710 5709 5708 5708 5707 5706 5706 5705 5703 5701 5697 5700 5704 5705 5704 5703 5701 5700 5699 5698 5696
5732 5729 5727 5726 5724 5723 5722 5722 5721 5720 5720 5719 5718 5716 5715 5715 5713 5712 5710 5710 5708 5707 5706 5705 5704 5704 5702 5701 5700 5700 5699 5698 5695 5693 5696 5697 5698 5698 5698 5697 5697 5696 5694
5727 5725 5723 5721 5720 5719 5718 5718 5718 5717 5716 5714 5713 5711 5711 5710 5709 5708 5706 5705 5704 5704 5702 5700 5699 5698 5697 5696 5695 5694 5694 5694 5692 5690 5690 5692 5693 5693 5692 5692 5692 5691 5691
5723 5720 5718 5716 5716 5716 5715 5714 5714 5713 5711 5710 5708 5707 5706 5706 5705 5704 5703 5702 5701 5700 5699 5697 5696 5694 5692 5691 5690 5689 5689 5687 5686 5685 5685 5686 5686 5688 5686 5685 5684 5685 5685
5718 5715 5714 5713 5713 5712 5711 5710 5709 5708 5707 5706 5704 5702 5702 5701 5700 5699 5698 5697 5696 5695 5694 5693 5692 5690 5688 5687 5686 5684 5683 5681 5680 5679 5679 5679 5680 5679 5679 5679 5677 5678 5678
5712 5710 5710 5709 5708 5706 5705 5704 5703 5702 5701 5699 5697 5696 5695 5696 5694 5693 5692 5691 5691 5689 5689 5688 5687 5685 5683 5681 5680 5679 5677 5676 5674 5674 5674 5673 5674 5675 5675 5674 5672 5670 5669
5706 5705 5705 5704 5702 5701 5700 5698 5696 5695 5694 5692 5691 5690 5689 5688 5686 5685 5684 5684 5684 5684 5683 5682 5682 5681 5678 5676 5674 5673 5672 5672 5671 5671 5669 5670 5671 5672 5671 5669 5668 5666 5665
5699 5699 5698 5698 5696 5695 5693 5691 5690 5689 5687 5686 5685 5684 5682 5681 5679 5678 5677 5677 5678 5678 5677 5677 5675 5673 5672 5669 5669 5667 5666 5666 5667 5667 5667 5668 5669 5668 5667 5665 5664 5662 5663
5691 5691 5691 5691 5689 5688 5686 5685 5684 5682 5681 5680 5680 5679 5677 5674 5672 5670 5668 5670 5670 5671 5671 5670 5668 5666 5664 5662 5662 5660 5660 5660 5662 5663 5663 5664 5663 5662 5661 5658 5656 5654 5654
5683 5683 5683 5683 5682 5680 5679 5679 5677 5676 5675 5675 5674 5673 5672 5669 5665 5663 5661 5662 5662 5663 5663 5662 5661 5660 5658 5656 5655 5654 5653 5654 5655 5656 5656 5658 5658 5658 5656 5654 5651 5649 5648
5676 5676 5675 5675 5674 5673 5672 5671 5670 5669 5669 5668 5667 5666 5665 5663 5659 5656 5654 5654 5655 5655 5656 5656 5655 5653 5651 5649 5648 5648 5648 5648 5648 5649 5651 5652 5652 5652 5652 5650 5649 5647 5645
5668 5667 5666 5666 5666 5667 5665 5664 5663 5663 5661 5661 5659 5658 5658 5656 5653 5650 5648 5647 5647 5647 5648 5649 5648 5646 5645 5643 5642 5643 5642 5642 5642 5643 5644 5645 5646 5646 5647 5647 5646 5645 5644
5659 5658 5657 5658 5658 5659 5657 5656 5656 5656 5655 5654 5653 5652 5651 5649 5647 5644 5642 5641 5639 5639 5640 5639 5639 5638 5638 5638 5638 5638 5637 5636 5637 5637 5638 5639 5640 5641 5641 5641 5640 5639 5639
5651 5650 5650 5650 5651 5651 5651 5650 5649 5648 5647 5647 5646 5645 5644 5642 5639 5637 5636 5634 5632 5631 5631 5631 5631 5631 5631 5632 5632 5632 5633 5633 5632 5632 5632 5633 5634 5634 5634 5633 5632 5632 5630
5643 5642 5643 5644 5644 5644 5644 5643 5642 5641 5641 5639 5639 5638 5636 5634 5631 5629 5627 5627 5626 5625 5623 5624 5625 5625 5625 5626 5627 5627 5628 5627 5626 5626 5626 5626 5626 5626 5625 5626 5625 5624 5622
5636 5635 5637 5638 5638 5638 5638 5637 5635 5635 5634 5633 5632 5630 5629 5626 5625 5624 5622 5620 5619 5618 5617 5619 5620 5620 5621 5621 5621 5621 5622 5622 5621 5621 5620 5619 5618 5618 5617 5617 5617 5616 5616
5629 5629 5631 5633 5633 5633 5633 5632 5630 5627 5626 5626 5625 5623 5621 5619 5618 5617 5616 5615 5614 5612 5612 5613 5615 5615 5616 5616 5616 5616 5616 5617 5616 5615 5614 5613 5611 5610 5609 5609 5609 5609 5608
5624 5624 5625 5626 5628 5628 5628 5628 5628 5626 5623 5622 5618 5616 5614 5613 5611 5610 5609 5608 5609 5608 5608 5608 5609 5609 5610 5609 5610 5610 5611 5611 5610 5608 5607 5606 5605 5604 5603 5601 5602 5602 5602
5617 5618 5618 5620 5622 5623 5623 5622 5622 5622 5620 5618 5616 5611 5608 5606 5605 5603 5602 5603 5604 5604 5604 5603 5604 5604 5604 5604 5603 5604 5604 5604 5603 5602 5600 5599 5599 5597 5597 5596 5596 5595 5595
5611 5611 5611 5613 5614 5616 5617 5617 5616 5616 5615 5613 5611 5608 5604 5602 5601 5600 5598 5598 5598 5598 5598 5597 5598 5598 5597 5597 5596 5596 5595 5595 5594 5593 5593 5593 5592 5591 5591 5591 5591 5591 5590
5606 5606 5605 5606 5607 5608 5608 5609 5610 5610 5609 5608 5606 5603 5599 5599 5598 5596 5595 5593 5591 5590 5590 5589 5589 5589 5588 5587 5587 5586 5586 5585 5584 5584 5584 5584 5585 5585 5585 5586 5585 5585 5584
5599 5601 5601 5601 5601 5600 5601 5601 5602 5602 5602 5600 5599 5597 5593 5593 5592 5590 5588 5586 5585 5583 5582 5581 5580 5579 5578 5578 5577 5576 5576 5575 5575 5574 5575 5576 5576 5577 5578 5578 5578 5577 5576
5594 5595 5596 5595 5595 5593 5593 5594 5594 5594 5594 5593 5592 5590 5588 5586 5585 5583 5581 5579 5577 5576 5575 5573 5572 5571 5570 5569 5568 5567 5566 5565 5565 5565 5565 5566 5568 5569 5569 5569 5569 5569 5569
5589 5589 5589 5589 5589 5588 5588 5587 5586 5586 5585 5584 5583 5582 5580 5578 5576 5575 5573 5572 5570 5568 5567 5566 5565 5563 5562 5561 5559 5558 5556 5555 5555 5556 5556 5557 5558 5560 5561 5560 5561 5561 5561
5582 5582 5582 5581 5581 5581 5580 5579 5579 5578 5577 5574 5574 5573 5572 5571 5569 5567 5565 5563 5563 5562 5561 5559 5557 5555 5554 5552 5550 5549 5548 5547 5547 5546 5547 5549 5550 5551 5551 5552 5551 5551 5551
5576 5575 5574 5574 5574 5573 5572 5571 5571 5570 5569 5568 5567 5566 5564 5562 5560 5558 5557 5555 5555 5554 5553 5551 5550 5548 5546 5544 5542 5540 5540 5539 5539 5538 5538 5540 5541 5542 5542 5541 5541 5541 5541